Showing default

BRO-15, 60553

Orbit data source: Space-Track

BRO-15, 60553 is a payload satellite owned by Unseen Labs (FR) in SSO that was launched on Fri, 16 Aug 2024 UTC via an FALCON 9 launch vehicle from the Air Force Western Test Range (AFWTR). Payload-class satellites include a variety of spacecraft equipped with specific instruments for various scientific and technological missions. These include communications satellites like Starlink; space stations such as the ISS; scientific satellites like the Hubble; Earth observation satellites from companies like Planet Labs, Umbra, and HawkEye 360; GPS; miniature CubeSats for education and research; and military/defense satellites.

Loading next visibility...
Identifier
60553, 2024-149CP
Orbit
SSO
Country
Flag of FRFR
Related business
Manufacturer
GOMSpace
Mission
Operational Commercial Sigint
Bus & Motor
CUBESAT 8U, Unknown motor
Mass
15 kg wet, ~15 kg dry
Launch date (UTC)
2024-08-16 (2 years ago)
Launch vehicle
FALCON 9
Launch site
Air Force Western Test Range (AFWTR)
Object type
Payload
Rocket body
Debris
Shape & HBR
Box, 0.2 m
Radar Cross Section
0.100 m², Medium (>0.1 m² and < 1m²)

Expand to show TLE details & history
Last TLE update: 1 day ago

TLE from 1 day ago
0 BRO-15
1 60553U 24149CP  26170.71916882  .00001225  00000-0  11372-3 0  9994
2 60553  97.6803 246.0506 0009311  80.7782 279.4492 14.96168721100387
Epoch: 2026-06-19T17:15Z
TLE epoch observation values (Epoch: 2026-06-19T17:15:36.186Z)
Latitude
-0.00001°
Longitude
79.20572°
Altitude
580.74 km
Speed
7.571 km/s
True Right ascension
16h 24m 12s
True Declination
0° 00' 00"
Sunlit
Object was in full shadow at epoch
Visualization orbit readout
Latitude
Unknown
Longitude
Unknown
Altitude
Unknown
Speed
Unknown
Apparent Right ascension
Unknown
Apparent Declination
Unknown
Sunlit
N/A
Visualization observer readout
Local Sidereal Time
07:24:41
Azimuth
Unknown
Elevation
Unknown
Doppler factor
Unknown
Orbital elements
Apogee altitude
582.232 km
Perigee altitude
569.282 km
Semi-major axis
6,953.894 km
Eccentricity
0.00093
Inclination
97.6803°
RAAN
246.0506°
Arg. of periapsis
80.7782°
True anomaly
279.34393°
Mean anomaly
279.4492°
Eccentric anomaly
279.39657°
Mean motion
3.74284 °/min
Orbital period
96.18 mins
BSTAR
0.00011372
Loading maneuver chart data...
Computing Atmospheric mass density...
Loading historical data...
Loading historical data...
Loading historical data...
Loading historical data...
Loading historical data...
Loading historical data...
Loading historical data...

Documentation

Showing up to 5 results
|